Starlink 11373

operational
NORAD ID: 61582 Int'l Des: 2024-187 Owner: SPXS Country: US Constellation: starlink
LEOCIRCULAR

About Starlink 11373

Description loading...

Live Position

Loading 3D Globe...

Upcoming Passes

Altitude History

Altitude vs Time

uPlot chart will show altitude changes over time

Two-Line Element Set

1 61582U 24187J 25352.24067770 -.00001981 00000-0 -11491-4 0 9995
2 61582 53.1587 338.0759 0001468 56.5379 303.5779 15.69718420 67956
Epoch: Dec 18, 2025 • Age: 16 hours

Current Status

Altitude 364.9 km
Velocity 7.70 km/s
Sub-Earth Point 51.60°N, 3.6°W
Launch Date Oct 18, 2024
Age 1.1 years
Type internet

Technical Details

Classification Payload
Mass 960.00 kg
Dry Mass 910.00 kg
Total Mass 960.00 kg
Length 0.30 m
Diameter 4.10 m
Span 29.00 m
Shape Box + pan
Manufacturer SPXS
Bus Type Starlink V2MD
Phase Status In Orbit
Owner/State SPXS/US

Large Constellations

Loading constellations...